[[{"header":{"parameterUnit":"m.s-1","parameterCategory":1,"la1":30.2991,"la2":30.254,"lo1":-89.0895,"lo2":-89.0444,"dy":0.0017,"dx":0.0017,"nx":28,"ny":28,"refTime":"2024-02-22T03:00:00:Z","depth":0,"parameterNumber":2,"parameterNumberName":"U-component_of_WINDS"},"data":[0,0,0,0,0,0,0,0,0,0,0,0,0,0,0,0,0,0,0,0,0,0,0,0,0,0,0,0,0,0,0,0,0,0,0,0,0,0,0,0,0,0,0,0,0,0,0,0,0,0,0,0,0,0,0,0,0,0,-0.7152,-0.7151,0,-0.7127,-0.7126,-0.7126,-0.71,-0.7099,-0.7099,-0.7099,-0.7074,-0.7074,-0.7074,0,0,0,0,0,0,0,0,0,0,0,0,0,-0.7179,-0.7178,-0.7152,-0.7151,-0.7151,-0.7127,-0.7126,-0.7126,-0.71,-0.7099,-0.7099,-0.7099,-0.7074,-0.7074,-0.7074,0,0,0,0,0,0,0,0,0,0,0,0,0,-0.7162,-0.7178,-0.7152,-0.7135,-0.7133,-0.7127,-0.7126,-0.7126,-0.71,-0.7099,-0.7099,-0.7098,-0.7074,-0.7074,-0.7074,-0.7082,0,0,-0.7072,-0.7072,0,0,0,0,0,0,0,0,-0.7163,-0.7161,-0.7138,-0.7136,-0.7134,-0.7116,-0.7127,-0.7111,-0.71,-0.7113,-0.7099,-0.7098,-0.7089,-0.7087,-0.7083,-0.708,-0.7079,-0.7072,-0.7072,-0.7072,-0.7071,0,0,0,0,0,0,0,-0.7164,-0.7162,-0.7142,-0.7138,-0.7135,-0.7129,-0.7126,-0.7124,-0.7104,-0.7112,-0.711,-0.7107,-0.7088,-0.7084,-0.7083,-0.7079,-0.7072,-0.7072,-0.7071,-0.7071,-0.7082,-0.7082,0,0,0,0,0,0,-0.7167,-0.7163,-0.7142,-0.7141,-0.7147,-0.7129,-0.7126,-0.7122,-0.7104,-0.7101,-0.7107,-0.7106,-0.7085,-0.7083,-0.7082,-0.709,-0.7072,-0.7071,-0.7071,-0.7081,-0.7082,-0.7083,0,0,0,0,0,0,-0.7168,-0.7166,-0.7144,-0.7151,-0.7148,-0.7129,-0.7126,-0.7122,-0.7118,-0.7101,-0.7097,-0.7107,-0.7085,-0.7082,-0.7082,-0.7089,-0.7071,-0.7071,-0.7081,-0.7081,-0.7082,-0.7106,0,0,0,0,0,0,-0.7169,-0.7166,-0.7169,-0.7152,-0.7148,-0.7144,-0.7126,-0.7122,-0.7118,-0.7115,-0.71,-0.7097,-0.7084,-0.7083,-0.7081,-0.7088,-0.707,-0.708,-0.7081,-0.7082,-0.7105,-0.7108,-0.7111,0,0,0,0,0,-0.717,-0.7177,-0.7169,-0.7167,-0.715,-0.7144,-0.7142,-0.7127,-0.7118,-0.7121,-0.711,-0.7097,-0.7088,-0.7083,-0.7081,-0.7087,-0.7079,-0.7081,-0.7082,-0.7104,-0.7107,-0.7111,0,0,0,0,0,0,-0.7195,-0.7174,-0.7165,-0.7166,-0.7157,-0.714,-0.7142,-0.7131,-0.7124,-0.7123,-0.7104,-0.7101,-0.7103,-0.7095,-0.7089,-0.7095,-0.7082,-0.7083,-0.7099,-0.7103,-0.7106,-0.7107,-0.707,0,0,0,0,0,-0.7201,-0.7197,-0.7179,-0.7182,-0.7178,-0.7161,-0.7158,-0.7147,-0.7137,-0.7133,-0.7121,-0.7113,-0.7108,-0.7105,-0.7099,-0.7104,-0.71,-0.7108,-0.7111,-0.7113,-0.7114,-0.7116,-0.7119,-0.7087,-0.7087,-0.7087,0,0,-0.7213,-0.7201,-0.7199,-0.7187,-0.7178,-0.7175,-0.7158,-0.7155,-0.7153,-0.7132,-0.7131,-0.7123,-0.7112,-0.7114,-0.7114,-0.7107,-0.7122,-0.7115,-0.7117,-0.7116,-0.7118,-0.7121,-0.7123,-0.7088,-0.7087,-0.7087,0,0,-0.7232,-0.7223,-0.7224,-0.7216,-0.7204,-0.7192,-0.7193,-0.7177,-0.7171,-0.7169,-0.7154,-0.7151,-0.7143,-0.7136,-0.7131,-0.7149,-0.7137,-0.7148,-0.7162,-0.7165,-0.7167,-0.7169,-0.7176,-0.7178,-0.7149,-0.7149,-0.7149,0,-0.7249,-0.7243,-0.7226,-0.7225,-0.722,-0.7201,-0.7203,-0.7196,-0.7182,-0.718,-0.7172,-0.7162,-0.7153,-0.7154,-0.7158,-0.7155,-0.7155,-0.7149,-0.7168,-0.717,-0.7172,-0.7178,-0.718,-0.715,-0.715,-0.715,-0.715,0,-0.7264,-0.726,-0.7263,-0.725,-0.7245,-0.7245,-0.7229,-0.7227,-0.7217,-0.7207,-0.7205,-0.7194,-0.7186,-0.7186,-0.7176,-0.7185,-0.7181,-0.7171,-0.7158,-0.7177,-0.7182,-0.7184,-0.7152,-0.7152,-0.7151,-0.7151,0,0,-0.7298,-0.7276,-0.7277,-0.7271,-0.7256,-0.7253,-0.7253,-0.7245,-0.7243,-0.7235,-0.7234,-0.7228,-0.7219,-0.7214,-0.7203,-0.7205,-0.722,-0.7195,-0.7195,-0.72,-0.7229,-0.7237,-0.7239,-0.7213,-0.7213,-0.7213,-0.723,0,-0.7315,-0.7312,-0.7297,-0.7299,-0.7296,-0.7278,-0.7278,-0.7269,-0.726,-0.7256,-0.7246,-0.7242,-0.7231,-0.7227,-0.7229,-0.7218,-0.7226,-0.7217,-0.7212,-0.7212,-0.7215,-0.7242,-0.725,-0.7266,-0.7232,-0.7233,-0.7233,0,-0.7334,-0.7326,-0.7328,-0.7313,-0.7311,-0.7311,-0.7302,-0.7299,-0.7289,-0.7282,-0.7277,-0.7265,-0.7264,-0.7252,-0.7251,-0.7245,-0.7243,-0.7237,-0.7238,-0.7236,-0.7223,-0.7241,-0.7271,-0.7273,-0.7236,-0.7236,-0.7235,0,-0.7358,-0.7349,-0.7348,-0.7344,-0.7327,-0.7327,-0.732,-0.7309,-0.7306,-0.7299,-0.7296,-0.7289,-0.7286,-0.7281,-0.7268,-0.7261,-0.7268,-0.7255,-0.7263,-0.7263,-0.7265,-0.7265,-0.7294,-0.7264,-0.7264,-0.7264,-0.7264,0,-0.7379,-0.738,-0.7359,-0.7359,-0.736,-0.7344,-0.7346,-0.7337,-0.7328,-0.7326,-0.7311,-0.731,-0.7293,-0.729,-0.7279,-0.728,-0.7279,-0.7273,-0.7271,-0.7274,-0.7275,-0.7272,-0.7271,-0.7264,-0.7264,-0.7264,-0.7264,0,-0.7406,-0.7392,-0.739,-0.7374,-0.737,-0.7372,-0.7359,-0.7358,-0.7348,-0.7346,-0.7345,-0.7329,-0.7325,-0.7312,-0.7304,-0.7297,-0.7301,-0.7296,-0.7304,-0.7302,-0.731,-0.731,-0.7338,-0.7341,-0.731,-0.731,-0.731,0,-0.742,-0.742,-0.7404,-0.7402,-0.7395,-0.7392,-0.7388,-0.7372,-0.7369,-0.7358,-0.7358,-0.7353,-0.7347,-0.7342,-0.733,-0.7324,-0.7319,-0.7329,-0.7318,-0.7322,-0.7319,-0.7319,-0.7319,-0.7332,-0.7332,-0.7332,-0.7333,0,-0.7445,-0.7438,-0.7433,-0.7425,-0.7421,-0.7414,-0.7407,-0.7406,-0.7388,-0.7386,-0.7381,-0.7377,-0.7369,-0.7364,-0.7356,-0.735,-0.7338,-0.7337,-0.7338,-0.7342,-0.7346,-0.7344,-0.7311,-0.7336,-0.7335,-0.7335,-0.7335,-0.7335,-0.7466,-0.7466,-0.7455,-0.7449,-0.7442,-0.7435,-0.7434,-0.7424,-0.742,-0.7412,-0.7403,-0.7399,-0.739,-0.7378,-0.7373,-0.737,-0.7364,-0.7366,-0.7367,-0.7367,-0.7369,-0.7347,-0.7369,-0.7369,-0.7369,-0.7368,-0.7368,0,-0.7491,-0.7483,-0.7478,-0.7468,-0.7464,-0.7453,-0.7445,-0.7442,-0.7439,-0.7431,-0.7426,-0.7421,-0.7416,-0.7404,-0.7398,-0.7398,-0.7393,-0.7397,-0.7397,-0.7395,-0.7375,-0.7374,-0.7401,-0.7401,-0.7401,-0.7401,-0.7401,-0.7401,-0.7503,-0.7502,-0.7494,-0.749,-0.7482,-0.7478,-0.7474,-0.7468,-0.7461,-0.7456,-0.7451,-0.7444,-0.7434,-0.7428,-0.7423,-0.742,-0.7418,-0.7424,-0.7419,-0.74,-0.7397,-0.7394,-0.7393,-0.7424,-0.7424,-0.744,-0.744,-0.744]},{"header":{"parameterUnit":"m.s-1","parameterCategory":1,"la1":30.2991,"la2":30.254,"lo1":-89.0895,"lo2":-89.0444,"dy":0.0017,"dx":0.0017,"nx":28,"ny":28,"refTime":"2024-02-22T03:00:00:Z","depth":0,"parameterNumber":3,"parameterNumberName":"V-component_of_WINDS"},"data":[0,0,0,0,0,0,0,0,0,0,0,0,0,0,0,0,0,0,0,0,0,0,0,0,0,0,0,0,0,0,0,0,0,0,0,0,0,0,0,0,0,0,0,0,0,0,0,0,0,0,0,0,0,0,0,0,0,0,2.4798,2.4798,0,2.4753,2.4753,2.4752,2.4723,2.4723,2.4723,2.4722,2.4673,2.4672,2.4671,0,0,0,0,0,0,0,0,0,0,0,0,0,2.4857,2.4856,2.4798,2.4798,2.4797,2.4753,2.4753,2.4752,2.4723,2.4723,2.4723,2.4722,2.4674,2.4672,2.4671,0,0,0,0,0,0,0,0,0,0,0,0,0,2.4823,2.4855,2.4798,2.4777,2.4775,2.4754,2.4753,2.4752,2.4723,2.4723,2.4723,2.4722,2.4674,2.4673,2.4671,2.4666,0,0,2.4666,2.4665,0,0,0,0,0,0,0,0,2.4825,2.4821,2.4781,2.4779,2.4776,2.4744,2.4755,2.4723,2.4723,2.4743,2.4722,2.4722,2.4697,2.4693,2.4685,2.4664,2.4661,2.4666,2.4665,2.4664,2.4663,0,0,0,0,0,0,0,2.4828,2.4823,2.478,2.478,2.4777,2.477,2.4765,2.4749,2.4722,2.4741,2.4739,2.4734,2.4695,2.4687,2.4684,2.4661,2.4666,2.4664,2.4663,2.4662,2.4634,2.4634,0,0,0,0,0,0,2.4834,2.4825,2.4782,2.4779,2.4801,2.4769,2.4763,2.4754,2.4722,2.4717,2.4734,2.4733,2.469,2.4686,2.4682,2.4675,2.4664,2.4662,2.4661,2.4634,2.4634,2.4634,0,0,0,0,0,0,2.4835,2.483,2.4784,2.4801,2.4795,2.4768,2.4758,2.4753,2.4745,2.4717,2.4712,2.4731,2.469,2.4684,2.4671,2.4673,2.4661,2.466,2.4633,2.4634,2.4634,2.466,0,0,0,0,0,0,2.4837,2.4831,2.4829,2.4802,2.4794,2.4773,2.4758,2.4753,2.4743,2.474,2.4712,2.4707,2.4689,2.4673,2.4669,2.467,2.4659,2.4633,2.4634,2.4634,2.4659,2.4661,2.4663,0,0,0,0,0,2.4839,2.4837,2.4829,2.4824,2.4791,2.4774,2.4769,2.4749,2.4743,2.4741,2.4723,2.4708,2.4673,2.4672,2.4667,2.4668,2.4633,2.4633,2.4634,2.4658,2.4661,2.4663,0,0,0,0,0,0,2.4863,2.4833,2.4824,2.4813,2.4796,2.4769,2.4765,2.4753,2.4737,2.4735,2.471,2.4704,2.4693,2.4679,2.4678,2.4662,2.4651,2.4651,2.4671,2.4674,2.4676,2.468,2.4657,0,0,0,0,0,2.4868,2.4857,2.483,2.4823,2.4816,2.4792,2.4783,2.477,2.4751,2.4744,2.4724,2.4706,2.4691,2.4682,2.4666,2.4657,2.4651,2.4655,2.4657,2.4659,2.4659,2.4654,2.4656,2.4636,2.4636,2.4636,0,0,2.4876,2.4858,2.4852,2.4828,2.4813,2.4802,2.4786,2.4774,2.4766,2.4741,2.4728,2.4713,2.4691,2.468,2.4674,2.4668,2.4664,2.466,2.4662,2.4661,2.4655,2.4657,2.4659,2.4637,2.4637,2.4637,0,0,2.4885,2.4871,2.4864,2.485,2.4829,2.4814,2.4813,2.4787,2.4777,2.4764,2.4746,2.4735,2.4709,2.4695,2.4684,2.469,2.4677,2.4686,2.4698,2.4693,2.4695,2.4696,2.4699,2.47,2.4686,2.4686,2.4686,0,2.4898,2.4881,2.4861,2.4852,2.4842,2.4821,2.4814,2.4801,2.4776,2.4769,2.4763,2.4732,2.4716,2.4702,2.4704,2.4695,2.4693,2.4689,2.4696,2.4697,2.4698,2.4701,2.4702,2.4687,2.4687,2.4687,2.4687,0,2.4898,2.4887,2.4884,2.4862,2.4851,2.4843,2.4822,2.4814,2.4801,2.4787,2.4774,2.4754,2.4734,2.473,2.4717,2.4714,2.4711,2.4701,2.469,2.4702,2.4704,2.4705,2.4689,2.4689,2.4688,2.4688,0,0,2.492,2.4889,2.4888,2.4879,2.4855,2.4846,2.4837,2.4819,2.4813,2.4797,2.4789,2.4769,2.476,2.4748,2.4733,2.4729,2.4737,2.4719,2.4719,2.4724,2.4734,2.4742,2.4743,2.4728,2.4728,2.4728,2.4736,0,2.4926,2.491,2.4893,2.4883,2.4872,2.4854,2.4846,2.483,2.4817,2.4806,2.479,2.4777,2.4766,2.4759,2.4754,2.4737,2.4738,2.4736,2.472,2.4719,2.4726,2.4744,2.4752,2.476,2.4736,2.4736,2.4736,0,2.4931,2.4918,2.4907,2.4886,2.4881,2.4874,2.4858,2.4848,2.483,2.482,2.4808,2.4793,2.4783,2.4774,2.4759,2.4758,2.475,2.4741,2.4741,2.4738,2.4729,2.4742,2.4762,2.4763,2.4737,2.4737,2.4737,0,2.4949,2.4928,2.4919,2.4911,2.4886,2.4883,2.4872,2.4854,2.4845,2.4831,2.4825,2.4809,2.48,2.4788,2.4769,2.4764,2.4757,2.4746,2.4748,2.4749,2.4747,2.4748,2.4766,2.4742,2.4742,2.4742,2.4742,0,2.4958,2.4952,2.4927,2.4922,2.4915,2.4896,2.4889,2.4877,2.4861,2.4853,2.4835,2.4827,2.4803,2.4793,2.4778,2.4768,2.4764,2.4756,2.4752,2.4758,2.4759,2.4752,2.4751,2.4743,2.4743,2.4743,2.4743,0,2.4976,2.496,2.4949,2.4927,2.4922,2.4918,2.4898,2.4892,2.4879,2.4868,2.4865,2.4843,2.483,2.481,2.479,2.4781,2.4774,2.4767,2.478,2.4778,2.4782,2.4782,2.4797,2.4798,2.4773,2.4774,2.4774,0,2.4983,2.4979,2.4957,2.4951,2.4941,2.4931,2.4923,2.4904,2.4896,2.4877,2.4873,2.4859,2.4847,2.4826,2.4808,2.4793,2.4787,2.4793,2.4784,2.479,2.4787,2.4788,2.4788,2.4795,2.4795,2.4796,2.4796,0,2.4997,2.499,2.4979,2.4966,2.4957,2.4945,2.4932,2.4928,2.4907,2.4898,2.4886,2.4876,2.4858,2.4844,2.4827,2.4815,2.4802,2.4799,2.4799,2.4804,2.4812,2.4809,2.4786,2.4799,2.4798,2.4798,2.4798,2.4798,2.501,2.5006,2.499,2.4979,2.4968,2.4958,2.4951,2.4938,2.4927,2.4912,2.4901,2.4889,2.4873,2.4849,2.4838,2.4828,2.4822,2.4822,2.4822,2.4822,2.4825,2.4814,2.4825,2.4825,2.4825,2.4825,2.4825,0,2.5023,2.5013,2.5003,2.4987,2.4979,2.4969,2.4955,2.4949,2.4939,2.4925,2.4914,2.49,2.4887,2.4869,2.4855,2.4851,2.4844,2.4847,2.4847,2.4845,2.483,2.4832,2.4853,2.4853,2.4853,2.4853,2.4853,2.4853,2.5029,2.5022,2.5013,2.5,2.499,2.4979,2.4972,2.4962,2.4951,2.4937,2.4927,2.4916,2.49,2.4885,2.4873,2.4868,2.4864,2.4869,2.4862,2.4849,2.4846,2.4843,2.4845,2.4868,2.4868,2.4877,2.4878,2.4878]}]]